Time,TemperatureF,DewpointF,PressureIn,WindDirection,WindDirectionDegrees,WindSpeedMPH,WindSpeedGustMPH,Humidity,HourlyPrecipIn,Conditions,Clouds,dailyrainin,SoftwareType,DateUTC
2013-05-09 00:05:00,57.6,37.0,29.88,North,0,0.0,0.0,46,0.00,,,-99.99,VWS V12.07,2013-05-09 05:05:00,
2013-05-09 00:10:00,57.4,36.8,29.88,North,0,0.0,0.0,46,0.00,,,-99.99,VWS V12.07,2013-05-09 05:10:00,
2013-05-09 00:15:00,57.2,36.6,29.88,North,0,0.0,0.0,46,0.00,,,-99.99,VWS V12.07,2013-05-09 05:15:00,
2013-05-09 00:20:00,57.2,37.2,29.85,North,0,0.0,0.0,47,0.00,,,-99.99,VWS V12.07,2013-05-09 05:20:00,
2013-05-09 00:26:00,57.2,37.2,29.85,North,0,0.0,0.0,47,0.00,,,-99.99,VWS V12.07,2013-05-09 05:26:00,
2013-05-09 00:35:00,57.4,37.3,29.85,North,0,0.0,0.0,47,0.00,,,-99.99,VWS V12.07,2013-05-09 05:35:00,
2013-05-09 00:40:00,57.4,37.3,29.85,North,0,0.0,0.0,47,0.00,,,-99.99,VWS V12.07,2013-05-09 05:40:00,
2013-05-09 00:45:00,57.2,36.6,29.85,North,0,0.0,0.0,46,0.00,,,-99.99,VWS V12.07,2013-05-09 05:45:00,
2013-05-09 00:50:00,57.0,37.0,29.85,North,0,0.0,0.0,47,0.00,,,-99.99,VWS V12.07,2013-05-09 05:50:00,
2013-05-09 00:55:00,57.0,37.0,29.85,North,0,0.0,0.0,47,0.00,,,-99.99,VWS V12.07,2013-05-09 05:55:00,
2013-05-09 01:00:00,56.8,36.8,29.85,North,0,0.0,0.0,47,0.00,,,-99.99,VWS V12.07,2013-05-09 06:00:00,
2013-05-09 01:05:00,56.7,36.7,29.85,North,0,0.0,0.0,47,0.00,,,-99.99,VWS V12.07,2013-05-09 06:05:00,
2013-05-09 01:10:00,56.3,36.3,29.85,North,0,0.0,0.0,47,0.00,,,-99.99,VWS V12.07,2013-05-09 06:10:00,
2013-05-09 01:15:00,55.9,36.5,29.85,North,0,0.0,0.0,48,0.00,,,-99.99,VWS V12.07,2013-05-09 06:15:00,
2013-05-09 01:20:00,55.8,36.9,29.85,North,0,0.0,0.0,49,0.00,,,-99.99,VWS V12.07,2013-05-09 06:20:00,
2013-05-09 01:26:00,55.4,36.6,29.85,North,0,0.0,0.0,49,0.00,,,-99.99,VWS V12.07,2013-05-09 06:26:00,
2013-05-09 01:35:00,55.2,37.4,29.85,North,0,0.0,0.0,51,0.00,,,-99.99,VWS V12.07,2013-05-09 06:35:00,
2013-05-09 01:40:00,55.0,37.3,29.85,North,0,0.0,0.0,51,0.00,,,-99.99,VWS V12.07,2013-05-09 06:40:00,
2013-05-09 01:45:00,55.0,37.8,29.85,North,0,0.0,0.0,52,0.00,,,-99.99,VWS V12.07,2013-05-09 06:45:00,
2013-05-09 01:50:00,54.9,37.6,29.85,North,0,0.0,0.0,52,0.00,,,-99.99,VWS V12.07,2013-05-09 06:50:00,
2013-05-09 01:56:00,54.9,38.1,29.85,North,0,0.0,0.0,53,0.00,,,-99.99,VWS V12.07,2013-05-09 06:56:00,
2013-05-09 02:05:00,55.0,38.2,29.85,North,0,0.0,0.0,53,0.00,,,-99.99,VWS V12.07,2013-05-09 07:05:00,
2013-05-09 02:10:00,54.9,38.1,29.85,North,0,0.0,0.0,53,0.00,,,-99.99,VWS V12.07,2013-05-09 07:10:00,
2013-05-09 02:15:00,54.7,37.9,29.85,North,0,0.0,0.0,53,0.00,,,-99.99,VWS V12.07,2013-05-09 07:15:00,
2013-05-09 02:20:00,54.5,37.7,29.85,North,0,0.0,0.0,53,0.00,,,-99.99,VWS V12.07,2013-05-09 07:20:00,
2013-05-09 02:25:00,54.3,38.0,29.85,North,0,0.0,0.0,54,0.00,,,-99.99,VWS V12.07,2013-05-09 07:25:00,
2013-05-09 02:30:00,54.0,37.7,29.85,North,0,0.0,0.0,54,0.00,,,-99.99,VWS V12.07,2013-05-09 07:30:00,
2013-05-09 02:35:00,54.1,38.3,29.85,North,0,0.0,0.0,55,0.00,,,-99.99,VWS V12.07,2013-05-09 07:35:00,
2013-05-09 02:40:00,54.1,38.3,29.85,North,0,0.0,0.0,55,0.00,,,-99.99,VWS V12.07,2013-05-09 07:40:00,
2013-05-09 02:45:00,54.1,38.8,29.85,North,0,0.0,0.0,56,0.00,,,-99.99,VWS V12.07,2013-05-09 07:45:00,
2013-05-09 02:50:00,54.1,38.8,29.85,North,0,0.0,0.0,56,0.00,,,-99.99,VWS V12.07,2013-05-09 07:50:00,
2013-05-09 03:00:00,54.5,39.6,29.85,North,0,0.0,0.0,57,0.00,,,-99.99,VWS V12.07,2013-05-09 08:00:00,
2013-05-09 03:05:00,54.5,39.1,29.85,North,0,0.0,0.0,56,0.00,,,-99.99,VWS V12.07,2013-05-09 08:05:00,
2013-05-09 03:10:00,54.5,39.1,29.85,North,0,0.0,0.0,56,0.00,,,-99.99,VWS V12.07,2013-05-09 08:10:00,
2013-05-09 03:15:00,54.5,39.6,29.85,North,0,0.0,0.0,57,0.00,,,-99.99,VWS V12.07,2013-05-09 08:15:00,
2013-05-09 03:20:00,54.5,39.6,29.85,North,0,0.0,0.0,57,0.00,,,-99.99,VWS V12.07,2013-05-09 08:20:00,
2013-05-09 03:30:00,54.5,39.6,29.85,North,0,0.0,0.0,57,0.00,,,-99.99,VWS V12.07,2013-05-09 08:30:00,
2013-05-09 03:35:00,54.3,39.9,29.85,North,0,0.0,0.0,58,0.00,,,-99.99,VWS V12.07,2013-05-09 08:35:00,
2013-05-09 03:40:00,54.3,39.9,29.85,North,0,0.0,0.0,58,0.00,,,-99.99,VWS V12.07,2013-05-09 08:40:00,
2013-05-09 03:45:00,54.1,39.7,29.85,North,0,0.0,0.0,58,0.00,,,-99.99,VWS V12.07,2013-05-09 08:45:00,
2013-05-09 03:50:00,54.3,40.3,29.85,North,0,0.0,0.0,59,0.00,,,-99.99,VWS V12.07,2013-05-09 08:50:00,
2013-05-09 04:00:00,54.1,40.1,29.85,North,0,0.0,0.0,59,0.00,,,-99.99,VWS V12.07,2013-05-09 09:00:00,
2013-05-09 04:10:00,54.3,40.3,29.85,North,0,0.0,0.0,59,0.00,,,-99.99,VWS V12.07,2013-05-09 09:10:00,
2013-05-09 04:20:00,54.3,40.8,29.85,North,0,0.0,0.0,60,0.00,,,-99.99,VWS V12.07,2013-05-09 09:20:00,
2013-05-09 04:30:00,54.3,40.8,29.85,North,0,0.0,0.0,60,0.00,,,-99.99,VWS V12.07,2013-05-09 09:30:00,
2013-05-09 04:35:00,54.3,40.8,29.85,North,0,0.0,0.0,60,0.00,,,-99.99,VWS V12.07,2013-05-09 09:35:00,
2013-05-09 04:40:00,54.1,40.6,29.85,North,0,0.0,0.0,60,0.00,,,-99.99,VWS V12.07,2013-05-09 09:40:00,
2013-05-09 04:45:00,54.0,40.4,29.85,North,0,0.0,0.0,60,0.00,,,-99.99,VWS V12.07,2013-05-09 09:45:00,
2013-05-09 04:55:00,54.0,40.8,29.85,North,0,0.0,0.0,61,0.00,,,-99.99,VWS V12.07,2013-05-09 09:55:00,
2013-05-09 05:00:00,53.8,40.7,29.85,North,0,0.0,0.0,61,0.00,,,-99.99,VWS V12.07,2013-05-09 10:00:00,
2013-05-09 05:10:00,54.0,40.8,29.85,North,0,0.0,0.0,61,0.00,,,-99.99,VWS V12.07,2013-05-09 10:10:00,
2013-05-09 05:15:00,54.0,40.8,29.85,North,0,0.0,0.0,61,0.00,,,-99.99,VWS V12.07,2013-05-09 10:15:00,
2013-05-09 05:20:00,54.0,40.8,29.85,North,0,0.0,0.0,61,0.00,,,-99.99,VWS V12.07,2013-05-09 10:20:00,
2013-05-09 05:30:00,53.8,41.1,29.85,North,0,0.0,0.0,62,0.00,,,-99.99,VWS V12.07,2013-05-09 10:30:00,
2013-05-09 05:35:00,53.6,40.9,29.85,North,0,0.0,0.0,62,0.00,,,-99.99,VWS V12.07,2013-05-09 10:35:00,
2013-05-09 05:40:00,53.6,40.9,29.85,North,0,0.0,0.0,62,0.00,,,-99.99,VWS V12.07,2013-05-09 10:40:00,
2013-05-09 05:50:00,53.6,41.3,29.85,North,0,0.0,0.0,63,0.00,,,-99.99,VWS V12.07,2013-05-09 10:50:00,
2013-05-09 05:55:00,53.8,41.5,29.85,North,0,0.0,0.0,63,0.00,,,-99.99,VWS V12.07,2013-05-09 10:55:00,
2013-05-09 06:00:00,53.8,41.9,29.85,North,0,0.0,0.0,64,0.00,,,-99.99,VWS V12.07,2013-05-09 11:00:00,
2013-05-09 06:10:00,54.0,42.5,29.85,North,0,0.0,0.0,65,0.00,,,-99.99,VWS V12.07,2013-05-09 11:10:00,
2013-05-09 06:15:00,54.0,42.5,29.85,North,0,0.0,0.0,65,0.00,,,-99.99,VWS V12.07,2013-05-09 11:15:00,
2013-05-09 06:21:00,54.0,42.5,29.85,North,0,0.0,0.0,65,0.00,,,-99.99,VWS V12.07,2013-05-09 11:21:00,
2013-05-09 06:30:00,54.5,43.0,29.85,North,0,0.0,0.0,65,0.00,,,-99.99,VWS V12.07,2013-05-09 11:30:00,
2013-05-09 06:35:00,54.7,43.2,29.85,North,0,0.0,0.0,65,0.00,,,-99.99,VWS V12.07,2013-05-09 11:35:00,
2013-05-09 06:40:00,54.7,43.2,29.85,North,0,0.0,0.0,65,0.00,,,-99.99,VWS V12.07,2013-05-09 11:40:00,
2013-05-09 06:45:00,54.7,43.2,29.85,North,0,0.0,0.0,65,0.00,,,-99.99,VWS V12.07,2013-05-09 11:45:00,
2013-05-09 06:50:00,54.9,43.3,29.85,North,0,0.0,0.0,65,0.00,,,-99.99,VWS V12.07,2013-05-09 11:50:00,
2013-05-09 07:00:00,55.4,43.8,29.85,North,0,0.0,0.0,65,0.00,,,-99.99,VWS V12.07,2013-05-09 12:00:00,
2013-05-09 07:05:00,55.8,44.2,29.85,North,0,0.0,0.0,65,0.00,,,-99.99,VWS V12.07,2013-05-09 12:05:00,
2013-05-09 07:10:00,56.1,44.5,29.85,North,0,0.0,0.0,65,0.00,,,-99.99,VWS V12.07,2013-05-09 12:10:00,
2013-05-09 07:15:00,56.7,45.0,29.85,North,0,0.0,0.0,65,0.00,,,-99.99,VWS V12.07,2013-05-09 12:15:00,
2013-05-09 07:20:00,57.2,45.2,29.85,North,0,0.0,0.0,64,0.00,,,-99.99,VWS V12.07,2013-05-09 12:20:00,
2013-05-09 07:30:00,58.5,45.5,29.85,North,0,0.0,0.0,62,0.00,,,-99.99,VWS V12.07,2013-05-09 12:30:00,
2013-05-09 07:35:00,59.0,45.2,29.85,North,0,0.0,0.0,60,0.00,,,-99.99,VWS V12.07,2013-05-09 12:35:00,
2013-05-09 07:40:00,59.7,45.4,29.85,North,0,0.0,0.0,59,0.00,,,-99.99,VWS V12.07,2013-05-09 12:40:00,
2013-05-09 07:45:00,60.4,45.6,29.85,North,0,0.0,0.0,58,0.00,,,-99.99,VWS V12.07,2013-05-09 12:45:00,
2013-05-09 07:55:00,61.9,44.6,29.85,North,0,0.0,0.0,53,0.00,,,-99.99,VWS V12.07,2013-05-09 12:55:00,
2013-05-09 08:00:00,62.6,43.7,29.85,North,0,0.0,0.0,50,0.00,,,-99.99,VWS V12.07,2013-05-09 13:00:00,
2013-05-09 08:05:00,63.0,42.4,29.85,North,0,0.0,0.0,47,0.00,,,-99.99,VWS V12.07,2013-05-09 13:05:00,
2013-05-09 08:10:00,63.3,42.8,29.85,North,0,0.0,0.0,47,0.00,,,-99.99,VWS V12.07,2013-05-09 13:10:00,
2013-05-09 08:15:00,63.7,42.5,29.85,North,0,0.0,0.0,46,0.00,,,-99.99,VWS V12.07,2013-05-09 13:15:00,
2013-05-09 08:20:00,64.0,41.7,29.85,North,0,0.0,0.0,44,0.00,,,-99.99,VWS V12.07,2013-05-09 13:20:00,
2013-05-09 08:25:00,64.6,41.6,29.85,North,0,0.0,0.0,43,0.00,,,-99.99,VWS V12.07,2013-05-09 13:25:00,
2013-05-09 08:30:00,65.3,40.4,29.85,North,0,0.0,0.0,40,0.00,,,-99.99,VWS V12.07,2013-05-09 13:30:00,
2013-05-09 08:35:00,65.8,39.5,29.85,North,0,0.0,0.0,38,0.00,,,-99.99,VWS V12.07,2013-05-09 13:35:00,
2013-05-09 08:40:00,66.2,39.2,29.85,North,0,0.0,0.0,37,0.00,,,-99.99,VWS V12.07,2013-05-09 13:40:00,
2013-05-09 08:50:00,67.1,40.7,29.85,North,0,0.0,0.0,38,0.00,,,-99.99,VWS V12.07,2013-05-09 13:50:00,
2013-05-09 08:55:00,67.3,40.1,29.85,North,0,0.0,0.0,37,0.00,,,-99.99,VWS V12.07,2013-05-09 13:55:00,
2013-05-09 09:00:00,67.5,40.3,29.85,North,0,0.0,0.0,37,0.00,,,-99.99,VWS V12.07,2013-05-09 14:00:00,
2013-05-09 09:10:00,67.3,41.5,29.85,North,0,0.0,0.0,39,0.00,,,-99.99,VWS V12.07,2013-05-09 14:10:00,
2013-05-09 09:20:00,67.1,42.0,29.85,North,0,0.0,0.0,40,0.00,,,-99.99,VWS V12.07,2013-05-09 14:20:00,
2013-05-09 09:25:00,67.1,42.0,29.85,North,0,0.0,0.0,40,0.00,,,-99.99,VWS V12.07,2013-05-09 14:25:00,
2013-05-09 09:30:00,66.9,41.8,29.85,North,0,0.0,0.0,40,0.00,,,-99.99,VWS V12.07,2013-05-09 14:30:00,
2013-05-09 09:35:00,66.9,41.8,29.85,North,0,0.0,0.0,40,0.00,,,-99.99,VWS V12.07,2013-05-09 14:35:00,
2013-05-09 09:40:00,66.7,42.3,29.85,North,0,0.0,0.0,41,0.00,,,-99.99,VWS V12.07,2013-05-09 14:40:00,
2013-05-09 09:50:00,66.4,40.0,29.85,North,0,0.0,0.0,38,0.00,,,-99.99,VWS V12.07,2013-05-09 14:50:00,
2013-05-09 09:55:00,66.4,40.0,29.85,North,0,0.0,0.0,38,0.00,,,-99.99,VWS V12.07,2013-05-09 14:55:00,
2013-05-09 10:00:00,66.4,40.7,29.85,North,0,0.0,0.0,39,0.00,,,-99.99,VWS V12.07,2013-05-09 15:00:00,
2013-05-09 10:10:00,66.7,41.0,29.85,North,0,0.0,0.0,39,0.00,,,-99.99,VWS V12.07,2013-05-09 15:10:00,
2013-05-09 10:20:00,67.1,41.3,29.85,North,0,0.0,0.0,39,0.00,,,-99.99,VWS V12.07,2013-05-09 15:20:00,
2013-05-09 10:25:00,67.1,40.7,29.85,North,0,0.0,0.0,38,0.00,,,-99.99,VWS V12.07,2013-05-09 15:25:00,
2013-05-09 10:30:00,67.1,41.3,29.85,North,0,0.0,0.0,39,0.00,,,-99.99,VWS V12.07,2013-05-09 15:30:00,
2013-05-09 10:35:00,67.1,41.3,29.85,North,0,0.0,0.0,39,0.00,,,-99.99,VWS V12.07,2013-05-09 15:35:00,
2013-05-09 10:45:00,67.1,42.0,29.85,North,0,0.0,0.0,40,0.00,,,-99.99,VWS V12.07,2013-05-09 15:45:00,
2013-05-09 10:50:00,67.1,42.0,29.85,North,0,0.0,0.0,40,0.00,,,-99.99,VWS V12.07,2013-05-09 15:50:00,
2013-05-09 10:55:00,67.3,42.2,29.85,North,0,0.0,0.0,40,0.00,,,-99.99,VWS V12.07,2013-05-09 15:55:00,
2013-05-09 11:00:00,67.5,42.3,29.85,North,0,0.0,0.0,40,0.00,,,-99.99,VWS V12.07,2013-05-09 16:00:00,
2013-05-09 11:05:00,67.5,42.3,29.85,North,0,0.0,0.0,40,0.00,,,-99.99,VWS V12.07,2013-05-09 16:05:00,
2013-05-09 11:15:00,67.6,41.8,29.85,North,0,0.0,0.0,39,0.00,,,-99.99,VWS V12.07,2013-05-09 16:15:00,
2013-05-09 11:20:00,67.8,42.6,29.85,North,0,0.0,0.0,40,0.00,,,-99.99,VWS V12.07,2013-05-09 16:20:00,
2013-05-09 11:25:00,68.0,42.1,29.85,North,0,0.0,0.0,39,0.00,,,-99.99,VWS V12.07,2013-05-09 16:25:00,
2013-05-09 11:30:00,68.2,41.6,29.85,North,0,0.0,0.0,38,0.00,,,-99.99,VWS V12.07,2013-05-09 16:30:00,
2013-05-09 11:35:00,68.5,42.6,29.85,North,0,0.0,0.0,39,0.00,,,-99.99,VWS V12.07,2013-05-09 16:35:00,
2013-05-09 11:41:00,68.7,42.1,29.85,North,0,0.0,0.0,38,0.00,,,-99.99,VWS V12.07,2013-05-09 16:41:00,
2013-05-09 11:50:00,69.1,43.1,29.85,North,0,0.0,0.0,39,0.00,,,-99.99,VWS V12.07,2013-05-09 16:50:00,
2013-05-09 11:55:00,69.1,42.4,29.85,North,0,0.0,0.0,38,0.00,,,-99.99,VWS V12.07,2013-05-09 16:55:00,
2013-05-09 12:00:00,68.9,41.6,29.85,North,0,0.0,0.0,37,0.00,,,-99.99,VWS V12.07,2013-05-09 17:00:00,
2013-05-09 12:05:00,68.7,40.7,29.85,North,0,0.0,0.0,36,0.00,,,-99.99,VWS V12.07,2013-05-09 17:05:00,
2013-05-09 12:15:00,68.5,41.3,29.85,North,0,0.0,0.0,37,0.00,,,-99.99,VWS V12.07,2013-05-09 17:15:00,
2013-05-09 12:20:00,68.5,41.3,29.85,North,0,0.0,0.0,37,0.00,,,-99.99,VWS V12.07,2013-05-09 17:20:00,
2013-05-09 12:25:00,68.5,40.5,29.85,North,0,0.0,0.0,36,0.00,,,-99.99,VWS V12.07,2013-05-09 17:25:00,
2013-05-09 12:30:00,68.5,40.5,29.85,North,0,0.0,0.0,36,0.00,,,-99.99,VWS V12.07,2013-05-09 17:30:00,
2013-05-09 12:35:00,68.5,40.5,29.85,North,0,0.0,0.0,36,0.00,,,-99.99,VWS V12.07,2013-05-09 17:35:00,
2013-05-09 12:40:00,68.5,40.5,29.85,North,0,0.0,0.0,36,0.00,,,-99.99,VWS V12.07,2013-05-09 17:40:00,
2013-05-09 12:50:00,68.5,39.8,29.85,North,0,0.0,0.0,35,0.00,,,-99.99,VWS V12.07,2013-05-09 17:50:00,
2013-05-09 12:55:00,68.7,40.0,29.85,North,0,0.0,0.0,35,0.00,,,-99.99,VWS V12.07,2013-05-09 17:55:00,
2013-05-09 13:00:00,68.7,40.0,29.85,North,0,0.0,0.0,35,0.00,,,-99.99,VWS V12.07,2013-05-09 18:00:00,
2013-05-09 13:10:00,68.9,41.6,29.85,North,0,0.0,0.0,37,0.00,,,-99.99,VWS V12.07,2013-05-09 18:10:00,
2013-05-09 13:20:00,68.9,44.2,29.85,North,0,0.0,0.0,41,0.00,,,-99.99,VWS V12.07,2013-05-09 18:20:00,
2013-05-09 13:25:00,68.7,44.7,29.85,North,0,0.0,0.0,42,0.00,,,-99.99,VWS V12.07,2013-05-09 18:25:00,
2013-05-09 13:30:00,68.5,44.6,29.85,North,0,0.0,0.0,42,0.00,,,-99.99,VWS V12.07,2013-05-09 18:30:00,
2013-05-09 13:35:00,68.5,44.6,29.82,North,0,0.0,0.0,42,0.00,,,-99.99,VWS V12.07,2013-05-09 18:35:00,
2013-05-09 13:40:00,68.4,44.4,29.82,North,0,0.0,0.0,42,0.00,,,-99.99,VWS V12.07,2013-05-09 18:40:00,
2013-05-09 13:50:00,68.2,44.9,29.85,North,0,0.0,0.0,43,0.00,,,-99.99,VWS V12.07,2013-05-09 18:50:00,
2013-05-09 13:55:00,68.0,44.7,29.85,North,0,0.0,0.0,43,0.00,,,-99.99,VWS V12.07,2013-05-09 18:55:00,
2013-05-09 14:00:00,67.8,45.1,29.85,North,0,0.0,0.0,44,0.00,,,-99.99,VWS V12.07,2013-05-09 19:00:00,
2013-05-09 14:10:00,67.1,46.2,29.82,North,0,0.0,0.0,47,0.00,,,-99.99,VWS V12.07,2013-05-09 19:10:00,
2013-05-09 14:20:00,66.2,48.1,29.82,North,0,0.0,0.0,52,0.00,,,-99.99,VWS V12.07,2013-05-09 19:20:00,
2013-05-09 14:25:00,66.0,49.4,29.82,North,0,0.0,0.0,55,0.00,,,-99.99,VWS V12.07,2013-05-09 19:25:00,
2013-05-09 14:30:00,65.8,49.7,29.82,North,0,0.0,0.0,56,0.00,,,-99.99,VWS V12.07,2013-05-09 19:30:00,
2013-05-09 14:35:00,65.5,50.3,29.82,North,0,0.0,0.0,58,0.00,,,-99.99,VWS V12.07,2013-05-09 19:35:00,
2013-05-09 14:40:00,65.5,51.2,29.82,North,0,0.0,0.0,60,0.00,,,-99.99,VWS V12.07,2013-05-09 19:40:00,
2013-05-09 14:50:00,65.3,51.5,29.79,North,0,0.0,0.0,61,0.00,,,-99.99,VWS V12.07,2013-05-09 19:50:00,
2013-05-09 14:55:00,65.3,51.5,29.79,North,0,0.0,0.0,61,0.00,,,-99.99,VWS V12.07,2013-05-09 19:55:00,
2013-05-09 15:00:00,65.3,51.5,29.79,North,0,0.0,0.0,61,0.00,,,-99.99,VWS V12.07,2013-05-09 20:00:00,
2013-05-09 15:10:00,65.3,51.1,29.79,North,0,0.0,0.0,60,0.00,,,-99.99,VWS V12.07,2013-05-09 20:10:00,
2013-05-09 15:20:00,65.3,49.7,29.79,North,0,0.0,0.0,57,0.00,,,-99.99,VWS V12.07,2013-05-09 20:20:00,
2013-05-09 15:30:00,65.1,50.0,29.79,North,0,0.0,0.0,58,0.00,,,-99.99,VWS V12.07,2013-05-09 20:30:00,
2013-05-09 15:35:00,64.9,49.8,29.79,North,0,0.0,0.0,58,0.00,,,-99.99,VWS V12.07,2013-05-09 20:35:00,
2013-05-09 15:40:00,64.8,50.1,29.79,North,0,0.0,0.0,59,0.00,,,-99.99,VWS V12.07,2013-05-09 20:40:00,
2013-05-09 15:45:00,64.8,50.6,29.79,North,0,0.0,0.0,60,0.00,,,-99.99,VWS V12.07,2013-05-09 20:45:00,
2013-05-09 15:50:00,64.8,51.0,29.82,North,0,0.0,0.0,61,0.00,,,-99.99,VWS V12.07,2013-05-09 20:50:00,
2013-05-09 16:00:00,64.2,51.8,29.82,North,0,0.0,0.0,64,0.00,,,-99.99,VWS V12.07,2013-05-09 21:00:00,
2013-05-09 16:10:00,63.9,51.9,29.82,North,0,0.0,0.0,65,0.00,,,-99.99,VWS V12.07,2013-05-09 21:10:00,
2013-05-09 16:15:00,63.7,52.1,29.82,North,0,0.0,0.0,66,0.00,,,-99.99,VWS V12.07,2013-05-09 21:15:00,
2013-05-09 16:20:00,63.3,52.2,29.79,North,0,0.0,0.0,67,0.00,,,-99.99,VWS V12.07,2013-05-09 21:20:00,
2013-05-09 16:26:00,63.1,52.4,29.79,North,0,0.0,0.0,68,0.00,,,-99.99,VWS V12.07,2013-05-09 21:26:00,
2013-05-09 16:35:00,63.0,53.0,29.79,North,0,0.0,0.0,70,0.04,,,-99.99,VWS V12.07,2013-05-09 21:35:00,
2013-05-09 16:40:00,62.8,53.2,29.79,North,0,0.0,0.0,71,0.04,,,-99.99,VWS V12.07,2013-05-09 21:40:00,
2013-05-09 16:45:00,62.4,54.0,29.79,North,0,0.0,0.0,74,0.04,,,-99.99,VWS V12.07,2013-05-09 21:45:00,
2013-05-09 16:50:00,61.3,52.6,29.79,North,0,0.0,0.0,73,0.04,,,-99.99,VWS V12.07,2013-05-09 21:50:00,
2013-05-09 16:55:00,59.9,50.1,29.79,North,0,0.0,0.0,70,0.04,,,-99.99,VWS V12.07,2013-05-09 21:55:00,
2013-05-09 17:05:00,58.1,48.8,29.79,North,0,0.0,0.0,71,0.04,,,-99.99,VWS V12.07,2013-05-09 22:05:00,
2013-05-09 17:10:00,57.4,47.7,29.79,North,0,0.0,0.0,70,0.04,,,-99.99,VWS V12.07,2013-05-09 22:10:00,
2013-05-09 17:15:00,56.5,46.5,29.79,North,0,0.0,0.0,69,0.08,,,-99.99,VWS V12.07,2013-05-09 22:15:00,
2013-05-09 17:20:00,55.4,45.4,29.82,North,0,0.0,0.0,69,0.08,,,-99.99,VWS V12.07,2013-05-09 22:20:00,
2013-05-09 17:25:00,54.3,44.4,29.82,North,0,0.0,0.0,69,0.08,,,-99.99,VWS V12.07,2013-05-09 22:25:00,
2013-05-09 17:35:00,52.9,43.4,29.82,North,0,0.0,0.0,70,0.08,,,-99.99,VWS V12.07,2013-05-09 22:35:00,
2013-05-09 17:40:00,52.3,42.9,29.82,North,0,0.0,0.0,70,0.08,,,-99.99,VWS V12.07,2013-05-09 22:40:00,
2013-05-09 17:45:00,52.2,43.1,29.82,North,0,0.0,0.0,71,0.08,,,-99.99,VWS V12.07,2013-05-09 22:45:00,
2013-05-09 17:50:00,52.3,43.6,29.82,North,0,0.0,0.0,72,0.08,,,-99.99,VWS V12.07,2013-05-09 22:50:00,
2013-05-09 18:00:00,52.0,43.2,29.82,North,0,0.0,0.0,72,0.08,,,-99.99,VWS V12.07,2013-05-09 23:00:00,
2013-05-09 18:05:00,51.8,43.1,29.82,North,0,0.0,0.0,72,0.04,,,-99.99,VWS V12.07,2013-05-09 23:05:00,
2013-05-09 18:20:00,51.4,42.7,29.82,North,0,0.0,0.0,72,0.04,,,-99.99,VWS V12.07,2013-05-09 23:20:00,
2013-05-09 18:30:00,51.1,42.4,29.82,North,0,0.0,0.0,72,0.04,,,-99.99,VWS V12.07,2013-05-09 23:30:00,
2013-05-09 18:35:00,50.9,42.2,29.82,North,0,0.0,0.0,72,0.04,,,-99.99,VWS V12.07,2013-05-09 23:35:00,
2013-05-09 18:40:00,50.9,42.6,29.82,North,0,0.0,0.0,73,0.04,,,-99.99,VWS V12.07,2013-05-09 23:40:00,
2013-05-09 18:45:00,50.7,42.8,29.82,North,0,0.0,0.0,74,0.08,,,-99.99,VWS V12.07,2013-05-09 23:45:00,
2013-05-09 18:55:00,50.7,43.1,29.82,North,0,0.0,0.0,75,0.08,,,-99.99,VWS V12.07,2013-05-09 23:55:00,
2013-05-09 19:00:00,50.7,43.4,29.82,North,0,0.0,0.0,76,0.04,,,-99.99,VWS V12.07,2013-05-10 00:00:00,
2013-05-09 19:05:00,50.7,43.4,29.82,North,0,0.0,0.0,76,0.04,,,-99.99,VWS V12.07,2013-05-10 00:05:00,
2013-05-09 19:10:00,50.7,43.8,29.82,North,0,0.0,0.0,77,0.04,,,-99.99,VWS V12.07,2013-05-10 00:10:00,
2013-05-09 19:20:00,50.2,43.6,29.79,North,0,0.0,0.0,78,0.04,,,-99.99,VWS V12.07,2013-05-10 00:20:00,
2013-05-09 19:25:00,50.0,43.4,29.79,North,0,0.0,0.0,78,0.04,,,-99.99,VWS V12.07,2013-05-10 00:25:00,
2013-05-09 19:30:00,49.8,43.2,29.79,North,0,0.0,0.0,78,0.04,,,-99.99,VWS V12.07,2013-05-10 00:30:00,
2013-05-09 19:35:00,49.6,43.4,29.79,North,0,0.0,0.0,79,0.04,,,-99.99,VWS V12.07,2013-05-10 00:35:00,
2013-05-09 19:40:00,49.5,43.2,29.79,North,0,0.0,0.0,79,0.04,,,-99.99,VWS V12.07,2013-05-10 00:40:00,
2013-05-09 19:45:00,49.1,42.9,29.79,North,0,0.0,0.0,79,0.04,,,-99.99,VWS V12.07,2013-05-10 00:45:00,
2013-05-09 19:55:00,48.6,42.3,29.82,North,0,0.0,0.0,79,0.04,,,-99.99,VWS V12.07,2013-05-10 00:55:00,
2013-05-09 20:00:00,48.4,42.5,29.82,North,0,0.0,0.0,80,0.00,,,-99.99,VWS V12.07,2013-05-10 01:00:00,
2013-05-09 20:10:00,47.8,42.3,29.82,North,0,0.0,0.0,81,0.00,,,-99.99,VWS V12.07,2013-05-10 01:10:00,
2013-05-09 20:15:00,47.5,42.3,29.82,North,0,0.0,0.0,82,0.00,,,-99.99,VWS V12.07,2013-05-10 01:15:00,
2013-05-09 20:25:00,47.3,42.1,29.82,North,0,0.0,0.0,82,0.04,,,-99.99,VWS V12.07,2013-05-10 01:25:00,
2013-05-09 20:30:00,47.3,42.4,29.82,North,0,0.0,0.0,83,0.04,,,-99.99,VWS V12.07,2013-05-10 01:30:00,
2013-05-09 20:35:00,46.9,42.0,29.82,North,0,0.0,0.0,83,0.04,,,-99.99,VWS V12.07,2013-05-10 01:35:00,
2013-05-09 20:40:00,46.8,42.2,29.82,North,0,0.0,0.0,84,0.04,,,-99.99,VWS V12.07,2013-05-10 01:40:00,
2013-05-09 20:45:00,46.8,42.2,29.82,North,0,0.0,0.0,84,0.04,,,-99.99,VWS V12.07,2013-05-10 01:45:00,
2013-05-09 20:50:00,46.6,42.0,29.82,North,0,0.0,0.0,84,0.04,,,-99.99,VWS V12.07,2013-05-10 01:50:00,
2013-05-09 20:55:00,46.4,41.8,29.82,North,0,0.0,0.0,84,0.04,,,-99.99,VWS V12.07,2013-05-10 01:55:00,
2013-05-09 21:05:00,46.0,41.5,29.82,North,0,0.0,0.0,84,0.04,,,-99.99,VWS V12.07,2013-05-10 02:05:00,
2013-05-09 21:10:00,46.0,41.5,29.82,North,0,0.0,0.0,84,0.04,,,-99.99,VWS V12.07,2013-05-10 02:10:00,
2013-05-09 21:15:00,46.0,41.5,29.82,North,0,0.0,0.0,84,0.04,,,-99.99,VWS V12.07,2013-05-10 02:15:00,
2013-05-09 21:20:00,45.9,41.6,29.82,North,0,0.0,0.0,85,0.04,,,-99.99,VWS V12.07,2013-05-10 02:20:00,
2013-05-09 21:25:00,45.9,41.6,29.82,North,0,0.0,0.0,85,0.04,,,-99.99,VWS V12.07,2013-05-10 02:25:00,
2013-05-09 21:30:00,45.7,41.4,29.82,North,0,0.0,0.0,85,0.04,,,-99.99,VWS V12.07,2013-05-10 02:30:00,
2013-05-09 21:35:00,45.5,41.3,29.82,North,0,0.0,0.0,85,0.04,,,-99.99,VWS V12.07,2013-05-10 02:35:00,
2013-05-09 21:45:00,45.3,41.1,29.82,North,0,0.0,0.0,85,0.04,,,-99.99,VWS V12.07,2013-05-10 02:45:00,
2013-05-09 21:50:00,45.3,41.1,29.82,North,0,0.0,0.0,85,0.04,,,-99.99,VWS V12.07,2013-05-10 02:50:00,
2013-05-09 21:55:00,45.1,40.9,29.82,North,0,0.0,0.0,85,0.04,,,-99.99,VWS V12.07,2013-05-10 02:55:00,
2013-05-09 22:00:00,45.1,40.9,29.82,North,0,0.0,0.0,85,0.00,,,-99.99,VWS V12.07,2013-05-10 03:00:00,
2013-05-09 22:10:00,45.0,41.0,29.82,North,0,0.0,0.0,86,0.00,,,-99.99,VWS V12.07,2013-05-10 03:10:00,
2013-05-09 22:15:00,45.0,41.0,29.82,North,0,0.0,0.0,86,0.00,,,-99.99,VWS V12.07,2013-05-10 03:15:00,
2013-05-09 22:20:00,44.8,40.9,29.82,North,0,0.0,0.0,86,0.00,,,-99.99,VWS V12.07,2013-05-10 03:20:00,
2013-05-09 22:30:00,44.8,40.9,29.82,North,0,0.0,0.0,86,0.00,,,-99.99,VWS V12.07,2013-05-10 03:30:00,
2013-05-09 22:35:00,44.8,40.9,29.82,North,0,0.0,0.0,86,0.00,,,-99.99,VWS V12.07,2013-05-10 03:35:00,
2013-05-09 22:40:00,44.6,40.7,29.82,North,0,0.0,0.0,86,0.00,,,-99.99,VWS V12.07,2013-05-10 03:40:00,
2013-05-09 22:45:00,44.6,41.0,29.82,North,0,0.0,0.0,87,0.00,,,-99.99,VWS V12.07,2013-05-10 03:45:00,
2013-05-09 22:50:00,44.6,41.0,29.79,North,0,0.0,0.0,87,0.00,,,-99.99,VWS V12.07,2013-05-10 03:50:00,
2013-05-09 23:00:00,44.6,41.0,29.79,North,0,0.0,0.0,87,0.00,,,-99.99,VWS V12.07,2013-05-10 04:00:00,
2013-05-09 23:05:00,44.2,40.6,29.79,North,0,0.0,0.0,87,0.04,,,-99.99,VWS V12.07,2013-05-10 04:05:00,
2013-05-09 23:10:00,44.2,40.6,29.79,North,0,0.0,0.0,87,0.04,,,-99.99,VWS V12.07,2013-05-10 04:10:00,
2013-05-09 23:15:00,44.1,40.5,29.79,North,0,0.0,0.0,87,0.04,,,-99.99,VWS V12.07,2013-05-10 04:15:00,
2013-05-09 23:20:00,44.1,40.7,29.79,North,0,0.0,0.0,88,0.04,,,-99.99,VWS V12.07,2013-05-10 04:20:00,
2013-05-09 23:25:00,43.9,40.6,29.79,North,0,0.0,0.0,88,0.04,,,-99.99,VWS V12.07,2013-05-10 04:25:00,
2013-05-09 23:30:00,43.7,40.4,29.79,North,0,0.0,0.0,88,0.04,,,-99.99,VWS V12.07,2013-05-10 04:30:00,
2013-05-09 23:40:00,43.7,40.4,29.79,North,0,0.0,0.0,88,0.04,,,-99.99,VWS V12.07,2013-05-10 04:40:00,
2013-05-09 23:45:00,43.5,40.2,29.79,North,0,0.0,0.0,88,0.04,,,-99.99,VWS V12.07,2013-05-10 04:45:00,
2013-05-09 23:50:00,43.5,40.2,29.79,North,0,0.0,0.0,88,0.04,,,-99.99,VWS V12.07,2013-05-10 04:50:00,
2013-05-09 23:55:00,43.3,40.0,29.79,North,0,0.0,0.0,88,0.04,,,-99.99,VWS V12.07,2013-05-10 04:55:00,